Miscellaneous Local Product
Issued by NWS Hastings, NE

Home | Current Version | Previous Version | Text Only | Print | Product List | Glossary Off
Versions: 1 2 3 4 5 6 7 8 9 10 11 12 13 14 15 16 17 18 19 20 21 22 23 24 25 26 27 28 29 30 31 32 33 34 35 36 37 38 39 40 41 42 43 44 45 46 47 48 49 50

000
AXUS43 KGID 272302
MISGRI

GID CWA HOURLY WEATHER ROUNDUP
NATIONAL WEATHER SERVICE HASTINGS NE
500 PM CST FRI FEB 27 2015

NOTE: "FAIR" INDICATES FEW OR NO CLOUDS BELOW 12,000 FEET WITH NO
SIGNIFICANT WEATHER AND/OR OBSTRUCTIONS TO VISIBILITY.

...SOUTH CENTRAL NEBRASKA...

CITY           SKY/WX    TMP DP  RH WIND       PRES   REMARKS
GRAND ISLAND   SUNNY     22  -3  33 S13       30.39F WCI  10
HASTINGS       SUNNY     21  -6  30 S10       30.37F WCI  10
KEARNEY        FAIR      21  -6  30 S12       30.34F WCI   9
ORD            SUNNY     23  -8  25 S12       30.32F WCI  12
YORK           MOSUNNY   21  -2  35 S9        30.42F WCI  11
AURORA         SUNNY     21  -4  33 SE9       30.40S WCI  11
LEXINGTON      MOSUNNY   24  -3  31 S13G20    30.29F WCI  12
HOLDREGE       SUNNY     21  -6  30 S14       30.32F WCI   8
HEBRON         SUNNY     21   0  39 S8        30.46S WCI  11

...NEBRASKA PANHANDLE...

CITY           SKY/WX    TMP DP  RH WIND       PRES   REMARKS
CHADRON        CLOUDY    23  10  57 S18G32    30.04F WCI   9
ALLIANCE       CLOUDY    19   8  62 S22G31    30.03F WCI   2
SCOTTSBLUFF    CLOUDY    23   8  52 S23G30    30.00F WCI   7
SIDNEY         CLOUDY    17   8  67 S21G29    30.04S WCI   0

...WESTERN AND NORTH CENTRAL NEBRASKA...

CITY           SKY/WX    TMP DP  RH WIND       PRES   REMARKS
VALENTINE      SUNNY     26   1  34 S17       30.18F WCI  13
AINSWORTH      SUNNY     24  -4  29 S12       30.22F WCI  13
ONEILL         SUNNY     25  -4  28 S12       30.32S WCI  14
BROKEN BOW     SUNNY     24  -3  30 S20       30.27F WCI  10
IMPERIAL         N/A     19   6  57 S18G25    30.17F WCI   4
NORTH PLATTE   PTSUNNY   21   3  45 S13       30.23S WCI   9
MCCOOK         CLOUDY    23   6  48 S16       30.27F WCI  10

...EASTERN NEBRASKA...

CITY           SKY/WX    TMP DP  RH WIND       PRES   REMARKS
NORFOLK        SUNNY     21   0  39 S9        30.40F WCI  11
TEKAMAH        SUNNY     17   5  59 SE6       30.51F WCI   9
COLUMBUS       SUNNY     19  -2  38 SE9       30.45F WCI   9
ALBION         SUNNY     22  -5  29 S10       30.38S WCI  11
OMAHA EPPLEY   MOSUNNY   19   4  51 E8        30.52F WCI   9
OFFUTT AFB     SUNNY     20   4  49 E6        30.51F WCI  12
MILLARD        SUNNY     20   2  45 SE3       30.51S
LINCOLN        SUNNY     21   1  41 SE6       30.50S WCI  13
NEBRASKA CITY  SUNNY     19  -8  30 SE5       30.50F WCI  12
BEATRICE       SUNNY     20  -1  38 SE5       30.48S WCI  14
FALLS CITY     PTSUNNY   19  -2  39 S6        30.53S WCI  11

...NORTHERN KANSAS...

CITY           SKY/WX    TMP DP  RH WIND       PRES   REMARKS
GOODLAND       LGT SNOW  15   9  76 S22       30.15F WCI  -3
HILL CITY      PTSUNNY   19   4  51 S12       30.35F WCI   7
NORTON         CLOUDY    19   0  42 SE8       30.31S WCI   9
PHILLIPSBURG   CLOUDY    25   3  39 SE9       30.38F WCI  15
HAYS           CLOUDY    19   0  42 SE12      30.37F WCI   7
RUSSELL        PTSUNNY   20   4  50 SE12      30.38F WCI   8
CONCORDIA      CLOUDY    19   1  45 S7        30.46F WCI  10
SALINA         CLOUDY    22   0  38 SE9       30.48F WCI  12
TOPEKA         CLOUDY    19   0  43 E3        30.55F



USA.gov is the U.S. government's official web portal to all federal, state and local government web resources and services.